Princeton, MN

2:09 AM CST on February 08, 2016 (GMT -0600)
Princeton Municipal

Weather History for KPNM - October, 2013

Change the Weather History Date:

Saturday, October 12, 2013

  Actual Average Record
Temperature  
Mean Temperature 52 °F -  
Max Temperature 60 °F 57 °F 73 °F (1997)
Min Temperature 44 °F 35 °F 17 °F (2012)
Degree Days  
Heating Degree Days 13    
Growing Degree Days 2 (Base 50)    
Moisture  
Dew Point 44 °F    
Average Humidity 78    
Maximum Humidity 93    
Minimum Humidity 63    
Precipitation  
Precipitation 0.04 in - - ()
Sea Level Pressure  
Sea Level Pressure 29.90 in    
Wind  
Wind Speed 9 mph (SW)    
Max Wind Speed 17 mph    
Max Gust Speed 24 mph    
Visibility 10 miles    
Events Rain    
Averages and records for this station are not official NWS values.
T = Trace of Precipitation, MM = Missing Value Source: NWS Daily Summary

Daily Weather History Graph

Daily Weather History Graph

Search for Another Location

Airport or City:

Trip Planner

Search our weather history database for the weather conditions in past years. The results will help you decide how hot, cold, wet, or windy it might be!

Date:

Astronomy

Oct. 12, 2013 Rise Set
Actual Time 7:27 AM CDT 6:33 PM CDT
Civil Twilight 6:57 AM CDT 7:03 PM CDT
Nautical Twilight 6:23 AM CDT 7:37 PM CDT
Astronomical Twilight 5:48 AM CDT 8:12 PM CDT
Moon 3:00 PM CDT (10/12) 12:12 AM CDT (10/12)
Length of Visible Light 12h 06m
Length of Day
11h 06m
First Quarter, 59% of the Moon is Illuminated
Oct 12
First Quarter
Oct 18
Full
Oct 26
Last Quarter
Nov 3
New
Nov 9
First Quarter

Hourly Weather History & Observations

Time (CDT) Temp. Windchill Dew Point Humidity Pressure Visibility Wind Dir Wind Speed Gust Speed Precip Events Conditions
12:13 AM 60.8 °F - 51.8 °F 72% 29.67 in 10.0 mi SSW 11.5 mph 21.9 mph N/A   Clear
12:33 AM 57.2 °F - 51.8 °F 82% 2.96 in 10.0 mi SSW 11.5 mph 24.2 mph N/A   Clear
12:53 AM 55.4 °F - 48.2 °F 77% 29.69 in 10.0 mi SSW 11.5 mph 23.0 mph N/A   Scattered Clouds
1:13 AM 55.4 °F - 48.2 °F 77% 29.69 in 10.0 mi SSW 8.1 mph 16.1 mph N/A   Mostly Cloudy
1:33 AM 55.4 °F - 46.4 °F 72% 29.71 in 10.0 mi SW 9.2 mph 17.3 mph N/A   Overcast
1:53 AM 55.4 °F - 46.4 °F 72% 29.72 in 10.0 mi SW 11.5 mph 19.6 mph N/A   Overcast
2:13 AM 53.6 °F - 44.6 °F 72% 29.72 in 10.0 mi SSW 10.4 mph 21.9 mph N/A   Overcast
2:33 AM 53.6 °F - 44.6 °F 72% 29.73 in 10.0 mi SSW 12.7 mph 24.2 mph N/A   Overcast
2:53 AM 53.6 °F - 44.6 °F 72% 29.73 in 10.0 mi SSW 8.1 mph 16.1 mph N/A   Overcast
3:13 AM 53.6 °F - 42.8 °F 67% 29.73 in 10.0 mi SSW 6.9 mph - N/A   Scattered Clouds
3:33 AM 51.8 °F - 42.8 °F 71% 29.74 in 10.0 mi South 6.9 mph - N/A   Scattered Clouds
3:54 AM 51.8 °F - 44.6 °F 76% 29.74 in 10.0 mi South 8.1 mph - N/A   Overcast
4:13 AM 51.8 °F - 44.6 °F 76% 29.74 in 10.0 mi South 8.1 mph - N/A   Overcast
4:33 AM 53.6 °F - 44.6 °F 72% 29.75 in 10.0 mi South 9.2 mph 16.1 mph N/A   Overcast
4:54 AM 51.8 °F - 44.6 °F 76% 29.75 in 10.0 mi South 8.1 mph - N/A   Overcast
5:13 AM 51.8 °F - 44.6 °F 76% 29.76 in 10.0 mi South 9.2 mph - N/A   Overcast
5:33 AM 51.8 °F - 44.6 °F 76% 29.75 in 10.0 mi SSW 5.8 mph - N/A   Overcast
5:54 AM 51.8 °F - 44.6 °F 76% 29.75 in 10.0 mi South 6.9 mph - N/A   Scattered Clouds
6:13 AM 50.0 °F - 44.6 °F 82% 29.76 in 10.0 mi South 8.1 mph - N/A   Clear
6:33 AM 50.0 °F - 44.6 °F 82% 29.77 in 10.0 mi South 6.9 mph - N/A   Scattered Clouds
6:53 AM 50.0 °F - 44.6 °F 82% 29.78 in 10.0 mi South 8.1 mph - N/A   Mostly Cloudy
7:13 AM 50.0 °F - 44.6 °F 82% 29.78 in 10.0 mi South 8.1 mph - N/A   Overcast
7:33 AM 50.0 °F - 44.6 °F 82% 29.79 in 10.0 mi South 6.9 mph - N/A   Overcast
7:53 AM 51.8 °F - 44.6 °F 76% 29.80 in 10.0 mi South 10.4 mph - N/A   Overcast
8:13 AM 51.8 °F - 42.8 °F 71% 29.80 in 10.0 mi South 6.9 mph - N/A   Overcast
8:33 AM 51.8 °F - 44.6 °F 76% 29.81 in 10.0 mi South 6.9 mph - N/A   Overcast
8:53 AM 53.6 °F - 42.8 °F 67% 29.81 in 10.0 mi SSW 9.2 mph - N/A   Overcast
9:13 AM 53.6 °F - 42.8 °F 67% 29.81 in 10.0 mi SSW 10.4 mph 18.4 mph N/A   Overcast
9:33 AM 53.6 °F - 42.8 °F 67% 29.81 in 10.0 mi SSW 9.2 mph 16.1 mph N/A   Overcast
9:53 AM 53.6 °F - 42.8 °F 67% 29.82 in 10.0 mi SW 10.4 mph 18.4 mph N/A   Overcast
10:13 AM 53.6 °F - 42.8 °F 67% 29.83 in 10.0 mi SW 11.5 mph 20.7 mph N/A   Overcast
10:33 AM 53.6 °F - 42.8 °F 67% 29.83 in 10.0 mi SW 11.5 mph 19.6 mph N/A   Overcast
10:54 AM 53.6 °F - 42.8 °F 67% 29.84 in 10.0 mi SW 8.1 mph 19.6 mph N/A   Overcast
11:13 AM 53.6 °F - 42.8 °F 67% 29.85 in 10.0 mi SW 13.8 mph 20.7 mph N/A   Overcast
11:33 AM 53.6 °F - 42.8 °F 67% 29.85 in 10.0 mi SW 10.4 mph 19.6 mph N/A   Overcast
11:54 AM 55.4 °F - 42.8 °F 63% 29.86 in 10.0 mi SW 13.8 mph 18.4 mph N/A   Overcast
12:13 PM 53.6 °F - 42.8 °F 67% 29.87 in 10.0 mi SW 16.1 mph 24.2 mph N/A   Overcast
12:33 PM 51.8 °F - 42.8 °F 71% 29.88 in 10.0 mi WSW 10.4 mph 17.3 mph N/A   Overcast
12:53 PM 51.8 °F - 42.8 °F 71% 29.89 in 10.0 mi SW 6.9 mph - N/A   Overcast
1:13 PM 51.8 °F - 42.8 °F 71% 29.89 in 10.0 mi WSW 16.1 mph 23.0 mph N/A   Overcast
1:33 PM 51.8 °F - 42.8 °F 71% 29.90 in 10.0 mi SW 8.1 mph 18.4 mph N/A Rain Light Rain
1:54 PM 51.8 °F - 42.8 °F 71% 29.91 in 10.0 mi WSW 9.2 mph 21.9 mph N/A   Light Drizzle
2:13 PM 51.8 °F - 42.8 °F 71% 29.91 in 10.0 mi WSW 17.3 mph 21.9 mph N/A   Overcast
2:33 PM 48.2 °F - 44.6 °F 87% 29.92 in 10.0 mi SW 13.8 mph 21.9 mph N/A Rain Light Rain
2:54 PM 48.2 °F - 44.6 °F 87% 29.93 in 10.0 mi SW 11.5 mph 18.4 mph N/A Rain Light Rain
3:13 PM 48.2 °F - 44.6 °F 87% 29.94 in 10.0 mi SW 12.7 mph 18.4 mph 0.01 in Rain Light Rain
3:33 PM 48.2 °F - 44.6 °F 87% 29.95 in 10.0 mi SW 10.4 mph 19.6 mph 0.02 in Rain Light Rain
3:53 PM 48.2 °F - 44.6 °F 87% 29.96 in 10.0 mi SW 8.1 mph 16.1 mph 0.03 in Rain Light Rain
4:13 PM 48.2 °F - 44.6 °F 87% 29.97 in 10.0 mi WSW 11.5 mph 17.3 mph N/A Rain Light Rain
4:33 PM 48.2 °F - 44.6 °F 87% 29.98 in 10.0 mi WSW 13.8 mph 20.7 mph N/A Rain Rain
4:54 PM 48.2 °F - 44.6 °F 87% 29.99 in 10.0 mi WSW 11.5 mph 17.3 mph N/A Rain Light Rain
5:13 PM 48.2 °F - 44.6 °F 87% 30.00 in 10.0 mi WSW 11.5 mph 17.3 mph 0.01 in Rain Light Rain
5:33 PM 48.2 °F - 44.6 °F 87% 30.01 in 10.0 mi WSW 10.4 mph 18.4 mph 0.01 in   Light Drizzle
5:53 PM 48.2 °F - 44.6 °F 87% 30.02 in 10.0 mi WSW 10.4 mph - 0.01 in   Overcast
6:14 PM 48.2 °F - 44.6 °F 87% 30.03 in 10.0 mi WSW 9.2 mph - N/A   Overcast
6:33 PM 48.2 °F - 44.6 °F 87% 30.04 in 10.0 mi WSW 8.1 mph - N/A   Overcast
6:53 PM 48.2 °F - 44.6 °F 87% 30.04 in 10.0 mi WSW 6.9 mph - N/A   Overcast
7:14 PM 48.2 °F - 44.6 °F 87% 30.05 in 10.0 mi WSW 9.2 mph - N/A   Overcast
7:33 PM 48.2 °F - 42.8 °F 82% 30.06 in 10.0 mi WSW 6.9 mph - N/A   Overcast
7:53 PM 48.2 °F - 44.6 °F 87% 30.07 in 10.0 mi WSW 6.9 mph - N/A   Overcast
8:13 PM 48.2 °F - 42.8 °F 82% 30.08 in 10.0 mi WSW 5.8 mph - N/A   Overcast
8:33 PM 46.4 °F 45.2 °F 42.8 °F 87% 30.08 in 10.0 mi WSW 3.5 mph - N/A   Scattered Clouds
8:53 PM 46.4 °F - 42.8 °F 87% 30.09 in 10.0 mi Calm Calm - N/A   Mostly Cloudy
9:13 PM 46.4 °F - 42.8 °F 87% 30.10 in 10.0 mi Calm Calm - N/A   Overcast
9:33 PM 46.4 °F 45.2 °F 42.8 °F 87% 30.11 in 10.0 mi SSW 3.5 mph - N/A   Overcast
9:53 PM 46.4 °F 45.2 °F 42.8 °F 87% 30.12 in 10.0 mi SW 3.5 mph - N/A   Overcast
10:13 PM 46.4 °F - 42.8 °F 87% 30.12 in 10.0 mi Calm Calm - N/A   Overcast
10:33 PM 44.6 °F 43.1 °F 42.8 °F 93% 30.13 in 10.0 mi SW 3.5 mph - N/A   Scattered Clouds
10:53 PM 44.6 °F 43.1 °F 41.0 °F 87% 30.14 in 10.0 mi SW 3.5 mph - N/A   Clear
11:13 PM 44.6 °F 43.1 °F 41.0 °F 87% 30.14 in 10.0 mi WSW 3.5 mph - N/A   Clear
11:33 PM 44.6 °F 41.4 °F 41.0 °F 87% 30.15 in 10.0 mi WSW 5.8 mph - N/A   Clear
11:53 PM 44.6 °F 41.4 °F 41.0 °F 87% 30.16 in 10.0 mi West 5.8 mph - N/A   Clear